星链-1483 (STARLINK-1483 )

导读

STARLINK-1483是美国太空探索技术公司星链星座中的一颗卫星,由美国于北京时间2020年6月13日发射升空,属于星链项目的部署卫星,主要服务于星链全球卫星互联网组网,为全球多地提供低轨卫星互联网接入服务,推动了全球互联网覆盖网络的建设进程。

基本信息
目录编号:
45743
目录名称:
STARLINK-1483
国际标识:
2020-038P
轨道中心:
EARTH
卫星名称:
星链-1483
卫星全名:
星链-1483 (STARLINK-1483 )
卫星状态:
已陨落 最后检测时间 2024-12-21
发射日期:
2020-06-13 UTC
国别 :
美国 (US)
星等 :
--
该卫星已列入 空间交会检测服务 Space Conjunction Data Service (SCDS) ,当前飞行风险评估等级: 无高风险
轨道信息
数据来源 国际轨道数据
星历时间: 2024-12-22T04:26:05+0800
轨道信息已过期631天
半长轴: 6527.707km
偏心率: 0.0003994
轨道倾角: 53.011°
近地点辐角 146.535°
升交点赤经 331.227°
平近点角 317.723°
近地点: 146.964km
远地点: 152.18km
周期: 87.478分钟
每日圈数: 16.461212
详细信息
固有亮度:
5
最大亮度:
2.5
卫星平台:
Starlink V1.0
覆盖范围:
全球
运营商:
太空探索技术公司
运营商所在国:
美国
制造商(研发单位):
太空探索技术公司
制造商所在国:
美国
使用方式:
暂无
卫星简介
星链(Starlink)计划是由太空探索技术公司(SpaceX)提出的一个巨型低轨卫星互联网星座项目,计划在2019年至2024年间在太空搭建由约1.2万颗卫星组成的“星链”网络,其中1584颗将部署在地球上空550千米处的近地轨道,并从2020年开始工作。该卫星仍在工作。
与全量物体交会距离演化趋势
与全量物体交会风险概率演化趋势